This is the latest recevied weather packets stored in our database for station/object KQ4PPF. If no packets are shown the sender has not sent any weather packets the latest 10 day(s).
| Time | Temp. | Humidity | Pressure | Rain* | Wind** | Luminosity | Snow |
|---|---|---|---|---|---|---|---|
| 1777575587 | 20° C | 45% | 1013.2 hPa | 0 mm | - | 187 W/m² | - |
| 1777575284 | 20° C | 44% | 1013 hPa | 0 mm | - | 197 W/m² | - |
| 1777574979 | 20° C | 48% | 1013.1 hPa | 0 mm | - | 217 W/m² | - |
| 1777574676 | 20° C | 45% | 1013 hPa | 0 mm | - | 218 W/m² | - |
| 1777574373 | 20° C | 49% | 1013.1 hPa | 0 mm | - | 204 W/m² | - |
| 1777574068 | 19.44° C | 47% | 1012.8 hPa | 0 mm | - | 188 W/m² | - |
| 1777573763 | 19.44° C | 46% | 1012.8 hPa | 0 mm | - | 205 W/m² | - |
| 1777573460 | 20° C | 46% | 1013 hPa | 0 mm | - | 188 W/m² | - |
| 1777573155 | 20° C | 44% | 1013.2 hPa | 0 mm | - | 160 W/m² | - |
| 1777572852 | 20.56° C | 47% | 1013.2 hPa | 0 mm | - | 175 W/m² | - |
| 1777572549 | 20.56° C | 49% | 1013.2 hPa | 0 mm | - | 366 W/m² | - |
| 1777572243 | 20.56° C | 47% | 1013.2 hPa | 0 mm | - | 106 W/m² | - |
| 1777571939 | 21.11° C | 48% | 1013 hPa | 0 mm | - | 515 W/m² | - |
| 1777571634 | 20° C | 47% | 1013.2 hPa | 0 mm | - | 801 W/m² | - |
| 1777571332 | 20.56° C | 46% | 1013.2 hPa | 0 mm | - | 791 W/m² | - |
| 1777571027 | 20° C | 49% | 1013.3 hPa | 0 mm | - | 795 W/m² | - |
| 1777570724 | 20° C | 47% | 1013.4 hPa | 0 mm | - | 783 W/m² | - |
| 1777570420 | 20° C | 49% | 1013.1 hPa | 0 mm | - | 690 W/m² | - |
| 1777570116 | 20° C | 49% | 1013.2 hPa | 0 mm | - | 769 W/m² | - |
| 1777569812 | 20.56° C | 52% | 1013.2 hPa | 0 mm | - | 755 W/m² | - |
| 1777569508 | 20.56° C | 51% | 1013.1 hPa | 0 mm | - | 778 W/m² | - |
| 1777569205 | 20° C | 52% | 1013.2 hPa | 0 mm | - | 736 W/m² | - |
| 1777568901 | 20° C | 53% | 1013.2 hPa | 0 mm | - | 736 W/m² | - |
| 1777568598 | 20° C | 51% | 1013.1 hPa | 0 mm | - | 763 W/m² | - |
| 1777568295 | 20° C | 50% | 1013.6 hPa | 0 mm | - | 781 W/m² | - |
* Rain latest hour (hover to see other rain measurements)
** Current wind speed in m/s (hover to see current wind gust speed)